Weather reports worldwide

Advertisment
Genthin, Germany (10365): temperature & dewpoint: 10.08.2018 13:00:00 - 16.08.2018 13:00:00 (CEST)Genthin, Germany (10365): temperature 5cm & temperature -5cm: 10.08.2018 13:00:00 - 16.08.2018 13:00:00 (CEST)Genthin, Germany (10365): temperature -20cm & temperature -100cm: 10.08.2018 13:00:00 - 16.08.2018 13:00:00 (CEST)Genthin, Germany (10365): wind speed & gusts: 10.08.2018 13:00:00 - 16.08.2018 13:00:00 (CEST)Genthin, Germany (10365): wind direction: 10.08.2018 13:00:00 - 16.08.2018 13:00:00 (CEST)Genthin, Germany (10365): reduced air pressure: 10.08.2018 13:00:00 - 16.08.2018 13:00:00 (CEST)Genthin, Germany (10365): visibility: 10.08.2018 13:00:00 - 16.08.2018 13:00:00 (CEST)Genthin, Germany (10365): sunshine duration: 10.08.2018 13:00:00 - 16.08.2018 13:00:00 (CEST)Genthin, Germany (10365): precipitation: 10.08.2018 13:00:00 - 16.08.2018 13:00:00 (CEST)
Date & Time tt [°C] td [°C] tt 5cm [°C] tt -5cm [°C] tt -20cm [°C] tt -100cm [°C] ff [km/h] ff [kn] fx [km/h] fx [kn] dd ppp [hPa] vv [km] sd [min] rr [mm]
16.08.2018 13:00:00 26,9 11,3 31,9 31,4 22,0 19,7 12 6 26 14 SSE 1016,8 30 60 0,0
16.08.2018 12:00:00 26,1 11,9 31,0 28,9 21,0 19,7 11 6 24 13 SSW 1017,5 42 60 0,0
16.08.2018 11:00:00 24,7 13,0 29,7 25,5 20,2 19,7 10 5 21 11 SE 1018,0 31 60 0,0
16.08.2018 10:00:00 22,4 13,9 26,0 21,7 19,7 19,7 7 4 13 7 SSE 1018,4 27 60 0,0
16.08.2018 09:00:00 19,8 13,6 21,7 18,6 19,6 19,7 6 3 11 6 S 1018,8 26 60 0,0
16.08.2018 08:00:00 16,3 13,0 16,6 17,0 19,8 19,7 2 1 4 2 SE 1019,2 22 60 0,0
16.08.2018 07:00:00 12,4 11,2 11,9 16,3 20,1 19,7 0 0 2 1 N 1019,5 14 4 0,0
16.08.2018 06:00:00 11,6 11,1 9,7 16,5 20,5 19,7 2 1 3 2 ESE 1019,3 10 0 0,0
16.08.2018 05:00:00 11,9 11,6 10,7 17,0 20,8 19,7 2 1 4 2 ESE 1019,4 7 0 0,0
16.08.2018 04:00:00 12,7 12,0 10,9 17,6 21,2 19,7 2 1 9 5 W 1019,4 12 0 0,0
16.08.2018 03:00:00 13,3 12,2 12,0 18,1 21,7 19,7 3 2 9 5 S 1019,6 16 0 0,0
16.08.2018 02:00:00 13,5 12,3 11,9 18,7 22,1 19,7 0 0 6 4 N 1019,6 19 0 0,0
16.08.2018 01:00:00 13,9 12,7 12,1 19,4 22,6 19,7 0 0 4 2 N 1019,5 20 0 0,0
16.08.2018 00:00:00 14,7 12,7 12,9 20,3 23,1 19,7 1 1 3 2 S 1019,4 26 0 0,0
15.08.2018 23:00:00 15,7 12,7 13,6 21,3 23,6 19,7 0 0 4 2 N 1019,5 32 0 0,0
15.08.2018 22:00:00 17,0 13,0 14,9 22,6 24,0 19,7 3 2 5 3 SW 1019,4 34 0 0,0
15.08.2018 21:00:00 19,7 13,4 17,5 24,3 24,4 19,7 4 2 9 5 SSW 1019,2 37 3 0,0
15.08.2018 20:00:00 22,7 13,1 21,7 26,4 24,5 19,7 6 4 18 10 W 1018,8 54 57 0,0
15.08.2018 19:00:00 24,0 13,4 25,7 27,5 24,5 19,8 9 5 22 12 WNW 1018,5 47 37 0,0
15.08.2018 18:00:00 23,5 13,3 25,3 27,6 24,5 19,8 13 7 24 13 WNW 1018,6 36 13 0,0
15.08.2018 17:00:00 23,8 12,7 25,0 29,4 24,2 19,8 12 7 24 13 WNW 1018,5 51 14 0,0
15.08.2018 16:00:00 24,4 12,6 27,5 30,5 23,5 19,8 11 6 29 16 NW 1018,4 44 13 0,0
15.08.2018 15:00:00 24,7 12,3 29,1 31,1 22,7 19,8 16 9 27 14 WNW 1018,4 26 51 0,0
15.08.2018 14:00:00 22,5 12,7 25,3 29,0 21,9 19,8 12 6 27 15 WSW 1018,6 48 21 0,0
15.08.2018 13:00:00 22,4 13,3 25,6 28,0 21,1 19,8 11 6 26 14 WSW 1018,6 43 26 0,0
15.08.2018 12:00:00 21,4 14,2 24,4 24,8 20,5 19,8 10 6 24 13 WNW 1018,8 47 0 0,0
15.08.2018 11:00:00 20,7 13,7 22,9 23,5 19,9 19,8 14 7 27 14 W 1018,8 50 9 0,0
15.08.2018 10:00:00 19,9 13,6 22,3 21,2 19,5 19,8 10 5 19 11 W 1018,4 56 53 0,0
15.08.2018 09:00:00 18,5 13,5 20,0 18,2 19,4 19,8 9 5 18 10 W 1018,1 35 45 0,3
15.08.2018 08:00:00 16,0 13,5 15,8 17,4 19,6 19,8 8 4 15 8 WSW 1017,7 42 15 0,0
15.08.2018 07:00:00 15,2 13,3 14,9 16,6 19,8 19,8 7 4 15 8 WSW 1017,2 39 0 0,0
15.08.2018 06:00:00 15,3 13,2 14,6 16,7 20,1 19,8 9 5 19 10 W 1016,6 33 0 0,0
15.08.2018 05:00:00 15,6 13,3 14,8 17,1 20,4 19,8 11 6 19 11 W 1016,2 45 0 0,0
15.08.2018 04:00:00 16,1 13,7 15,0 17,6 20,7 19,9 9 5 21 11 W 1016,2 47 0 0,0
15.08.2018 03:00:00 17,0 14,3 16,0 18,3 20,9 19,9 11 6 33 18 W 1015,8 49 0 0,0
15.08.2018 02:00:00 18,0 14,1 17,7 18,8 21,2 19,9 18 10 35 19 WNW 1015,6 50 0 0,0
15.08.2018 01:00:00 18,2 14,0 17,9 19,0 21,5 19,9 17 9 38 20 WNW 1015,4 66 0 0,0
15.08.2018 00:00:00 17,5 14,8 17,0 19,4 21,8 19,9 19 10 40 22 WNW 1015,0 21 0 0,0
14.08.2018 23:00:00 18,6 15,9 17,6 19,8 22,1 19,9 12 6 22 12 W 1014,1 40 0 0,0
14.08.2018 22:00:00 18,0 16,5 17,1 20,2 22,5 19,9 11 6 29 16 WSW 1013,8 27 0 0,0
14.08.2018 21:00:00 18,2 16,7 17,5 21,2 22,8 19,9 14 7 29 16 W 1013,3 27 0 0,3
14.08.2018 20:00:00 18,4 17,0 17,9 22,7 23,1 19,9 17 9 33 18 W 1012,5 7 0 0,2
14.08.2018 19:00:00 20,2 16,9 19,8 24,0 23,1 19,9 18 10 37 20 W 1011,9 36 2 0,0
14.08.2018 18:00:00 21,4 16,4 21,9 25,3 23,1 19,9 14 8 29 16 W 1011,4 62 31 0,0
14.08.2018 17:00:00 20,1 17,7 20,8 24,6 23,0 19,9 7 4 32 18 W 1011,2 28 0 0,4
14.08.2018 16:00:00 23,1 15,0 24,5 27,2 22,6 19,9 12 6 19 11 W 1010,5 45 28 0,0
14.08.2018 15:00:00 19,5 16,0 19,7 25,3 22,4 19,9 17 9 34 18 WNW 1010,7 30 5 0,0
14.08.2018 14:00:00 22,3 14,0 25,1 24,2 22,3 19,9 9 5 27 15 WSW 1010,3 57 1 0,0
14.08.2018 13:00:00 21,6 13,5 22,1 25,2 22,0 19,9 13 7 29 15 WSW 1010,1 48 2 0,0
14.08.2018 12:00:00 22,3 13,4 25,6 25,5 21,5 19,9 13 7 28 15 WSW 1010,0 31 21 0,0
14.08.2018 11:00:00 20,7 13,5 21,6 24,3 21,0 19,9 13 7 31 17 WSW 1010,1 31 10 0,0
14.08.2018 10:00:00 20,6 13,8 23,0 22,9 20,7 19,9 14 8 29 16 WSW 1009,9 28 31 0,0
14.08.2018 09:00:00 20,0 14,2 22,4 20,0 20,5 19,9 13 7 26 14 SW 1009,8 22 54 0,0
14.08.2018 08:00:00 18,0 14,0 18,8 18,6 20,7 19,9 9 5 18 10 SW 1009,5 26 29 0,0
14.08.2018 07:00:00 15,7 13,6 15,0 18,0 21,0 19,9 4 2 9 5 S 1009,2 20 0 0,0
14.08.2018 06:00:00 14,8 13,3 12,6 18,0 21,3 19,9 5 3 8 5 SW 1008,8 19 0 0,0
14.08.2018 05:00:00 15,9 13,6 13,8 18,6 21,6 19,9 5 3 13 7 SSW 1008,3 31 0 0,0
14.08.2018 04:00:00 17,6 13,9 16,4 19,3 21,9 19,9 7 4 19 10 WSW 1008,0 44 0 0,0
14.08.2018 03:00:00 18,5 13,8 17,4 19,8 22,2 19,9 9 5 20 11 WSW 1007,8 56 0 0,0
14.08.2018 02:00:00 18,9 13,8 18,0 20,0 22,6 19,9 9 5 20 11 WSW 1007,5 58 0 0,0
14.08.2018 01:00:00 18,9 14,8 17,5 20,6 23,0 19,9 9 5 17 9 SW 1007,3 53 0 0,0
14.08.2018 00:00:00 18,5 15,1 16,7 21,3 23,4 19,9 5 3 11 6 S 1006,9 55 0 0,0
13.08.2018 23:00:00 19,6 15,6 18,1 22,2 23,8 19,9 5 3 13 7 S 1006,9 53 0 0,0
13.08.2018 22:00:00 21,1 16,1 19,9 23,3 24,1 20,0 8 5 15 8 S 1007,0 52 0 0,0
13.08.2018 21:00:00 22,4 15,7 21,8 24,6 24,3 20,0 6 3 16 8 S 1006,6 64 10 0,0
13.08.2018 20:00:00 23,2 15,6 23,4 25,7 24,4 20,0 9 5 18 10 SSW 1006,4 70 23 0,0
13.08.2018 19:00:00 23,0 15,9 23,7 25,8 24,6 20,0 6 3 18 10 S 1006,5 68 16 0,0
13.08.2018 18:00:00 21,9 16,0 22,2 25,8 24,8 20,0 6 4 14 8 SW 1007,2 70 0 0,0
13.08.2018 17:00:00 21,3 16,8 20,1 27,1 25,0 20,0 5 3 34 18 WSW 1007,7 41 0 0,2
13.08.2018 16:00:00 25,7 11,8 26,2 28,9 24,9 20,0 19 10 38 21 W 1007,3 70 0 0,0
13.08.2018 15:00:00 27,8 9,2 28,5 31,8 24,3 20,0 16 8 34 18 WSW 1006,8 64 17 0,0
13.08.2018 14:00:00 30,5 8,1 34,3 33,1 23,3 20,0 11 6 32 17 SW 1006,5 54 49 0,0
13.08.2018 13:00:00 29,2 6,3 33,4 31,9 22,2 20,0 11 6 27 14 SW 1007,1 45 57 0,0
13.08.2018 12:00:00 28,3 7,0 30,5 29,2 21,1 20,0 13 7 27 14 SSE 1007,3 65 55 0,0
13.08.2018 11:00:00 27,3 7,8 31,8 25,8 20,3 20,0 6 4 11 6 SSW 1007,5 49 54 0,0
13.08.2018 10:00:00 24,6 7,5 28,5 22,0 19,8 20,0 4 2 8 4 SW 1007,6 45 60 0,0
13.08.2018 09:00:00 20,3 7,7 21,8 18,3 19,7 20,0 3 1 8 5 S 1008,1 41 59 0,0
13.08.2018 08:00:00 16,1 9,7 17,5 16,8 19,8 20,0 3 2 4 2 ESE 1008,4 43 59 0,0
13.08.2018 07:00:00 12,4 8,6 12,3 16,1 20,2 20,0 0 0 4 2 N 1008,7 31 22 0,0
13.08.2018 06:00:00 9,8 8,2 7,9 16,3 20,6 20,0 0 0 4 2 N 1009,0 29 0 0,0
13.08.2018 05:00:00 10,4 8,1 8,2 16,9 21,1 20,0 3 2 4 2 ESE 1009,3 33 0 0,0
13.08.2018 04:00:00 10,9 8,0 9,1 17,6 21,5 20,1 3 1 4 2 ESE 1009,7 41 0 0,0
13.08.2018 03:00:00 12,4 8,6 9,9 18,4 22,0 20,1 1 1 4 2 W 1010,2 41 0 0,0
13.08.2018 02:00:00 12,9 8,7 10,7 19,0 22,5 20,1 1 1 4 2 SE 1010,5 43 0 0,0
13.08.2018 01:00:00 14,0 8,9 10,6 19,9 23,0 20,1 0 0 2 1 N 1011,0 47 0 0,0
13.08.2018 00:00:00 14,7 8,8 12,2 20,8 23,5 20,1 0 0 3 1 N 1011,3 56 0 0,0
12.08.2018 23:00:00 16,0 7,9 12,9 21,9 24,1 20,1 1 1 2 1 SE 1011,6 55 0 0,0
12.08.2018 22:00:00 16,7 9,0 14,2 23,3 24,6 20,1 1 1 4 2 ESE 1011,8 66 0 0,0
12.08.2018 21:00:00 19,0 8,1 16,8 25,2 25,0 20,2 4 2 6 3 E 1012,0 61 0 0,0
12.08.2018 20:00:00 23,7 6,7 21,7 27,4 25,2 20,2 1 1 9 5 SE 1012,3 68 12 0,0
12.08.2018 19:00:00 26,2 4,0 26,3 29,6 25,1 20,2 6 4 19 10 WSW 1012,8 67 58 0,0
12.08.2018 18:00:00 26,4 4,9 28,6 31,0 24,8 20,2 7 4 21 11 SSW 1013,4 60 60 0,0
12.08.2018 17:00:00 26,4 4,0 30,3 31,6 24,2 20,3 11 6 29 15 SW 1014,1 47 60 0,0
12.08.2018 16:00:00 25,8 4,0 30,6 31,6 23,4 20,3 13 7 26 14 SW 1014,9 31 60 0,0
12.08.2018 15:00:00 25,3 5,1 30,5 31,1 22,4 20,3 13 7 24 13 S 1015,6 26 60 0,0
12.08.2018 14:00:00 24,9 6,6 29,9 29,4 21,4 20,3 11 6 30 16 SW 1016,6 58 60 0,0
12.08.2018 13:00:00 23,1 6,5 27,3 27,2 20,5 20,3 12 6 28 15 SW 1017,2 47 60 0,0
12.08.2018 12:00:00 22,8 6,3 27,6 25,1 19,6 20,3 15 8 29 15 SW 1018,0 33 60 0,0
12.08.2018 11:00:00 21,8 7,0 26,3 22,1 18,9 20,4 11 6 24 13 SW 1018,4 37 60 0,0
12.08.2018 10:00:00 19,9 7,7 23,0 19,2 18,4 20,4 11 6 26 14 SSW 1018,9 34 60 0,0
12.08.2018 09:00:00 17,4 9,2 19,4 16,5 18,3 20,4 8 5 17 9 S 1019,2 47 60 0,0
12.08.2018 08:00:00 14,3 8,7 15,2 15,1 18,5 20,4 6 3 12 7 S 1019,5 36 60 0,0
12.08.2018 07:00:00 11,9 8,7 11,5 14,4 18,7 20,4 3 2 12 7 SSE 1020,1 37 21 0,0
12.08.2018 06:00:00 11,1 8,4 10,0 14,5 19,1 20,4 6 4 14 7 S 1020,2 33 0 0,0
12.08.2018 05:00:00 10,0 8,6 8,5 14,8 19,5 20,4 2 1 11 6 W 1020,4 33 0 0,0
12.08.2018 04:00:00 10,7 8,6 9,2 15,2 19,9 20,5 5 3 9 5 SSW 1020,7 42 0 0,0
12.08.2018 03:00:00 10,0 8,0 7,8 15,8 20,3 20,5 4 2 5 3 SW 1020,7 45 0 0,0
12.08.2018 02:00:00 10,8 8,4 8,4 16,5 20,8 20,5 0 0 8 5 N 1020,8 52 0 0,0
12.08.2018 01:00:00 13,1 8,8 11,2 17,2 21,3 20,5 5 3 9 5 WSW 1021,2 56 0 0,0
12.08.2018 00:00:00 13,9 8,6 12,0 18,0 21,7 20,5 5 3 9 5 WSW 1021,3 63 0 0,0
11.08.2018 23:00:00 14,7 8,4 12,5 19,0 22,2 20,6 5 3 11 6 SW 1021,3 64 0 0,0
11.08.2018 22:00:00 16,7 8,2 14,0 20,2 22,6 20,6 4 2 18 10 WSW 1021,0 68 0 0,0
11.08.2018 21:00:00 18,4 7,7 17,2 21,5 23,0 20,6 12 6 38 21 W 1020,7 70 2 0,0
11.08.2018 20:00:00 19,4 8,3 19,2 23,0 23,2 20,6 16 8 36 19 NW 1020,3 64 6 0,0
11.08.2018 19:00:00 21,1 6,8 21,4 24,7 23,2 20,7 22 12 41 22 W 1019,8 38 51 0,0
11.08.2018 18:00:00 22,4 6,2 24,5 25,6 23,0 20,7 17 9 39 21 W 1019,3 58 38 0,0
11.08.2018 17:00:00 22,7 5,5 25,7 26,3 22,6 20,7 20 11 45 24 WSW 1019,2 32 54 0,0
11.08.2018 16:00:00 22,3 5,0 26,0 26,1 22,2 20,7 19 10 39 21 WSW 1019,4 54 41 0,0
11.08.2018 15:00:00 21,3 6,2 23,0 26,4 21,6 20,7 21 11 39 21 W 1019,6 59 39 0,0
11.08.2018 14:00:00 21,8 6,6 26,5 25,1 21,0 20,8 20 11 37 20 W 1019,6 59 40 0,0
11.08.2018 13:00:00 20,8 7,8 24,2 23,4 20,4 20,8 18 10 32 17 W 1019,7 54 43 0,0
11.08.2018 12:00:00 17,7 9,8 22,0 20,3 20,2 20,8 9 5 39 21 SW 1020,4 51 13 0,1
11.08.2018 11:00:00 19,3 8,7 22,0 21,0 19,8 20,8 20 11 44 24 W 1020,2 55 9 0,0
11.08.2018 10:00:00 19,5 8,4 21,0 19,4 19,5 20,8 22 12 41 22 W 1019,9 48 25 0,0
11.08.2018 09:00:00 18,6 8,9 19,2 17,7 19,5 20,8 8 5 16 9 WSW 1019,3 55 5 0,0
11.08.2018 08:00:00 16,0 9,1 15,8 16,3 19,7 20,8 7 4 11 6 SSW 1019,0 56 0 0,0
11.08.2018 07:00:00 15,6 8,4 14,7 15,9 19,9 20,9 5 3 13 7 SSW 1018,9 57 10 0,0
11.08.2018 06:00:00 14,9 8,0 13,8 15,9 20,2 20,9 8 4 15 8 S 1019,0 58 0 0,0
11.08.2018 05:00:00 15,0 7,7 13,8 16,2 20,6 20,9 9 5 16 9 S 1019,2 54 0 0,0
11.08.2018 04:00:00 15,2 7,5 14,6 16,5 20,9 20,9 9 5 14 7 S 1019,8 57 0 0,0
11.08.2018 03:00:00 15,4 7,6 14,4 16,6 21,4 20,9 9 5 15 8 S 1020,2 58 0 0,0
11.08.2018 02:00:00 14,3 8,4 12,7 17,0 21,9 20,9 8 4 13 7 SSE 1020,7 50 0 0,0
11.08.2018 01:00:00 15,0 8,7 13,3 17,7 22,4 20,9 9 5 14 7 SSE 1021,0 52 0 0,0
11.08.2018 00:00:00 16,5 8,7 14,0 18,6 22,9 20,9 8 4 13 7 SSE 1021,2 57 0 0,0
10.08.2018 23:00:00 16,8 8,8 14,7 19,4 23,4 21,0 8 5 13 7 SSE 1021,3 57 0 0,0
10.08.2018 22:00:00 15,4 10,7 13,1 20,6 24,0 21,0 6 3 10 5 SSE 1021,3 54 0 0,0
10.08.2018 21:00:00 18,3 9,8 15,4 22,2 24,4 21,0 4 2 7 4 SE 1021,2 69 13 0,0
10.08.2018 20:00:00 22,2 7,1 20,9 24,3 24,6 21,0 5 3 13 7 S 1021,0 70 59 0,0
10.08.2018 19:00:00 22,9 6,7 23,4 25,7 24,7 21,0 6 3 20 11 SSW 1021,2 62 46 0,0
10.08.2018 18:00:00 23,8 6,7 25,8 27,0 24,5 21,0 7 4 27 15 W 1021,5 44 50 0,0
10.08.2018 17:00:00 23,6 5,9 26,5 27,5 24,2 21,0 14 8 27 15 WSW 1021,7 42 46 0,0
10.08.2018 16:00:00 22,8 7,1 24,1 27,7 23,7 21,0 14 7 29 16 WSW 1022,1 60 52 0,0
10.08.2018 15:00:00 23,2 8,1 27,5 25,3 23,4 21,0 13 7 24 13 WSW 1021,7 61 23 0,0
10.08.2018 14:00:00 21,7 8,7 23,5 26,1 22,9 21,0 15 8 34 19 W 1021,5 51 46 0,0
10.08.2018 13:00:00 21,3 10,4 24,8 24,3 22,6 21,0 18 10 35 19 W 1021,3 43 41 0,0

tt = temperature
td = dewpoint
tt 5cm = temperature 5cm
tt -5cm = temperature -5cm
tt -20cm = temperature -20cm
tt -100cm = temperature -100cm
ff = wind speed
fx = gusts
dd = wind direction
ppp = reduced air pressure
vv = visibility
sd = sunshine duration
rr = precipitation

Next stations